STARLINK-4728, 53793

Orbit data source: Space-Track

STARLINK-4728, 53793 is a payload satellite owned by SpaceX/Seattle (US) in LEO that was launched on Sun, 11 Sep 2022 UTC via an FALCON 9 launch vehicle from the Air Force Eastern Test Range (AFETR). Payload-class satellites include a variety of spacecraft equipped with specific instruments for various scientific and technological missions. These include communications satellites like Starlink; space stations such as the ISS; scientific satellites like the Hubble; Earth observation satellites from companies like Planet Labs, Umbra, and HawkEye 360; GPS; miniature CubeSats for education and research; and military/defense satellites.

Loading next visibility...
Identifier
53793, 2022-111W
Orbit
LEO
Country
Flag of USUS
Related business
Manufacturer
SpaceX/Seattle
Mission
Operational Commercial Communications
Bus & Motor
STARLINK, Unknown motor
Mass
305 kg wet, ~290 kg dry
Launch date (UTC)
2022-09-11 (4 years ago)
Launch vehicle
FALCON 9
Launch site
Air Force Eastern Test Range (AFETR)
Object type
Payload
Rocket body
Debris
Shape & HBR
Box + 1 Pan, 10.1 m
Radar Cross Section
13.562 m², Large (>1 m²)

Expand to show TLE details & history
Last TLE update: 19 hours ago

TLE from 19 hours ago
0 STARLINK-4728
1 53793U 22111W   26263.26328364  .00000466  00000-0  26781-4 0  9991
2 53793  53.1595 107.1232 0001613  88.7177 271.4009 15.31703478223247
Epoch: 2026-09-20T06:19Z
TLE epoch observation values (Epoch: 2026-09-20T06:19:07.706Z)
Latitude
-0.00004°
Longitude
13.18109°
Altitude
471.603 km
Speed
7.631 km/s
True Right ascension
07h 08m 29s
True Declination
0° 00' 00"
Sunlit
Object was in daylight at epoch
Visualization orbit readout
Latitude
Unknown
Longitude
Unknown
Altitude
Unknown
Speed
Unknown
Apparent Right ascension
Unknown
Apparent Declination
Unknown
Sunlit
N/A
Visualization observer readout
Local Sidereal Time
18:18:09
Azimuth
Unknown
Elevation
Unknown
Doppler factor
Unknown
Orbital elements
Apogee altitude
472.091 km
Perigee altitude
469.882 km
Semi-major axis
6,849.123 km
Eccentricity
0.00016
Inclination
53.1595°
RAAN
107.1232°
Arg. of periapsis
88.7177°
True anomaly
271.38242°
Mean anomaly
271.4009°
Eccentric anomaly
271.39166°
Mean motion
3.82905 °/min
Orbital period
94.02 mins
BSTAR
0.000026781
Loading maneuver chart data...
Computing Atmospheric mass density...
Loading historical data...
Loading historical data...
Loading historical data...
Loading historical data...
Loading historical data...
Loading historical data...
Loading historical data...

Documentation

Showing up to 5 results
|